星链-37408(STARLINK-37408)

导读

STARLINK-37408(NORAD编号69518)是美国SpaceX公司星链低轨通信星座的成员,属V2 Mini代卫星,于2026年5月由猎鹰9号火箭从范登堡太空部队基地发射入轨。该卫星重约800公斤,配备4路激光星间链路与E-band回程通信模块,单星带宽可达100Gbps,运行于高度约550公里、倾角53度的近地轨道,轨道周期约94.3分钟。 作为星链第二代星座的组成部分,该卫星主要承担全球高速宽带覆盖任务,可支撑偏远地区、海洋作业场景的网络接入,还具备手机直连通信服务能力,截至2026年6月在轨运行状态稳定。

基本信息
目录编号:
69518
目录名称:
STARLINK-37408
国际标识:
2026-133L
轨道中心:
EARTH
卫星名称:
星链-37408
卫星全名:
星链-37408(STARLINK-37408)
卫星状态:
在轨 (已飞行84 天)
发射日期:
2026-06-12 UTC
国别 :
美国 (US)
星等 :
--
轨道信息
数据来源 国际轨道数据
星历时间: 2026-09-04T11:37:56+0800
11小时前
查看轨道信息
半长轴: 6840.849km
偏心率: 0.0001663
轨道倾角: 53.158°
近地点辐角 58.302°
升交点赤经 306.180°
平近点角 301.815°
近地点: 461.574km
远地点: 463.85km
周期: 93.848分钟
每日圈数: 15.343971
详细信息
固有亮度:
5
最大亮度:
2.5
卫星平台:
Starlink V1.0
覆盖范围:
全球
运营商:
太空探索技术公司
运营商所在国:
美国
制造商(研发单位):
太空探索技术公司
制造商所在国:
美国
使用方式:
暂无
卫星简介
Starlink 计划是 SpaceX 推出的全球卫星互联网项目,通过发射低轨道卫星,为全球尤其是偏远地区提供高速、低延迟的互联网服务。自 2019 年起,Starlink 已部署数千颗卫星,旨在缩小全球数字鸿沟,推动互联网普及。该项目还为军事、航空等行业提供通信支持,带来广泛经济效益。
2D轨道图
3D轨道图
轨道高度分析图
轨道倾角分析图
轨道综合分析图
查看轨道综合分析图
交会数据列表
事件ID 空间交会对象 最接近时刻(TCA) 交会距离 交会风险概率(CRP) 交会风险指数(CRI) 操作
CDM_260904-173306-579206-951821
2026-09-04T
17:33:12+0000
1.616 km
极远距离
5.23225E-6 低风险 0.49
CDM_260904-182006-579206-951821
2026-09-04T
18:20:08+0000
2.239 km
极远距离
2.171789E-6 低风险 0.42
CDM_260903-172406-370406-951821
2026-09-03T
17:24:41+0000
2.853 km
极远距离
1.27183E-6 低风险 0.37
CDM_260903-113405-187506-951821
2026-09-03T
11:34:22+0000
2.870 km
极远距离
5.685007E-7 极低风险 0.3